Virginia Peak (RGX), Nevada Weather observations

 Day   Time    Ave.   Ave.  Ave.  Vector  Max.   Total    Solar  
  of    of     Air    Rel.  Wind   Wind   Wind  Precip.   Rad.   
Year   Day     Temp.  Hum.  Speed  Dir.   Gust                   
2016   (PST)    F      %     mph   deg.    mph    in.     W/m2  
----------------------------------------------------------------
 240    0:00   58.0    23   15.0   300    17.0   999.00     999
 240    0:15   59.0    23   18.0   306    17.0   999.00     999
 240    0:30   56.0    23   15.0   293    19.0   999.00     999
 240    0:45   58.0    24    0.0   295    18.0   999.00     999
 240    1:00   58.0    23   16.0   302    18.0   999.00     999
 240    1:15   58.0    24    0.0   308    16.0   999.00     999
 240    1:30   56.0    24   13.0   310    16.0   999.00     999
 240    1:45   57.0    24   10.0   321    15.0   999.00     999
 240    2:00   57.0    25   13.0   313    13.0   999.00     999
 240    2:15   57.0    25   13.0   326    14.0   999.00     999
 240    2:30   57.0    25   13.0   304    14.0   999.00     999
 240    2:45   55.0    25    0.0   308    15.0   999.00     999
 240    3:00   56.0    26    8.0   294    15.0   999.00     999
 240    3:15   56.0    25    0.0   289    13.0   999.00     999
 240    3:30   54.0    26    0.0   288    10.0   999.00     999
 240    3:45   54.0    26   11.0   287    12.0   999.00     999
 240    4:00   55.0    26    0.0   291    12.0   999.00     999
 240    4:15   55.0    27   12.0   293    11.0   999.00     999
 240    4:30   54.0    27    0.0   295    12.0   999.00     999
 240    4:45   56.0    27    9.0   297    13.0   999.00     999
 240    5:00   56.0    27    7.0   304    12.0   999.00     999
 240    5:15   56.0    27    5.0   314     9.0   999.00     999
 240    5:30   54.0    27    0.0   304     7.0   999.00     999
 240    5:45   54.0    27    6.0   319     8.0   999.00     999
 240    6:00   54.0    27    9.0   303     8.0   999.00     999
 240    6:15   55.0    27    0.0   300     9.0   999.00     999
 240    6:30   53.0    26    0.0   302    11.0   999.00     999
 240    6:45   55.0    25    7.0   304    12.0   999.00     999
 240    7:00   54.0    25    0.0   302     9.0   999.00     999
 240    7:15   57.0    25    0.0   309     7.0   999.00     999
 240    7:30   59.0    24    0.0   310     6.0   999.00     999
 240    7:45   59.0    24    0.0   299     3.0   999.00     999
 240    8:00   61.0    23    0.0   339     4.0   999.00     999
 240    8:15   61.0    22    0.0   283     0.0   999.00     999
 240    8:30   62.0    21    0.0   100     0.0   999.00     999
 240    8:45   62.0    21    0.0   289     0.0   999.00     999
 240    9:00   63.0    21    0.0   280     0.0   999.00     999
 240    9:15   62.0    22    0.0   280     0.0   999.00     999
 240    9:30   61.0    21    0.0   250     5.0   999.00     999
 240    9:45   62.0    20    0.0   314     5.0   999.00     999
 240   10:00   65.0    19    0.0    10     5.0   999.00     999
 240   10:15   64.0    18    0.0   271     0.0   999.00     999
 240   10:30   66.0    18    0.0   261     0.0   999.00     999
 240   10:45   67.0    17    0.0   283     6.0   999.00     999
 240   11:00   67.0    17    0.0     3    12.0   999.00     999
 240   11:15   69.0    16    0.0   129     8.0   999.00     999
 240   11:30   66.0    17    0.0   125     5.0   999.00     999
 240   11:45   69.0    15    0.0   250    11.0   999.00     999
 240   12:00   66.0    15    5.0   267     7.0   999.00     999
 240   12:15   68.0    13   10.0   124    10.0   999.00     999
 240   12:30   66.0    14    7.0   266    10.0   999.00     999
 240   12:45   69.0    14   11.0   273    14.0   999.00     999

Return to Virginia Peak (RGX) graphs page.


Western Regional Climate Center,wrcc@dri.edu